EW5010 Weather Reports


time (UTC)temp
F
wind
direction
speed
knots
gust
knots
rain 1hr
in
rain 24hr
in
rain mn
in
humidity
%
barometer
mb
20260506044521 67 328 0.0 5.2 0.00 0.13 0.13 77 1008.6
20260506044018 67 56 2.6 2.6 0.00 0.13 0.13 77 1008.7
20260506043514 67 34 0.9 1.7 0.00 0.13 0.13 77 1008.5
20260506043013 68 120 0.0 2.6 0.00 0.13 0.13 77 1008.3
20260506042512 68 256 0.9 1.7 0.00 0.13 0.13 77 1008.4
20260506042009 69 230 1.7 3.5 0.00 0.13 0.13 77 1008.4
20260506041508 69 76 2.6 4.3 0.00 0.13 0.13 77 1008.3
20260506041004 69 51 3.5 6.1 0.00 0.13 0.13 76 1008.2
20260506040502 69 83 1.7 5.2 0.00 0.13 0.13 77 1008.0
20260506035957 70 79 1.7 2.6 0.00 0.13 0.13 77 1008.1
20260506035455 70 46 2.6 2.6 0.00 0.13 0.13 77 1008.2
20260506034951 70 163 0.9 2.6 0.00 0.13 0.13 77 1008.1
20260506034449 70 245 0.0 3.5 0.00 0.13 0.13 77 1007.9
20260506033946 70 79 1.7 1.7 0.00 0.13 0.13 77 1007.8
20260506033443 70 325 1.7 3.5 0.00 0.13 0.13 77 1008.0
20260506032939 70 76 0.0 2.6 0.00 0.13 0.13 76 1007.9
20260506032437 71 76 0.0 2.6 0.00 0.13 0.13 76 1007.7
20260506031933 71 81 1.7 3.5 0.00 0.13 0.13 75 1007.6
20260506031431 71 109 1.7 5.2 0.00 0.13 0.13 76 1007.9
20260506030929 72 256 2.6 5.2 0.00 0.13 0.13 76 1007.5
20260506030426 72 79 0.0 3.5 0.00 0.13 0.13 76 1007.4
20260506025923 73 141 0.9 2.6 0.00 0.13 0.13 76 1007.0
20260506025420 73 167 0.0 4.3 0.00 0.13 0.13 76 1007.0
20260506024916 73 41 0.0 2.6 0.00 0.13 0.13 75 1006.9
20260506024414 73 229 1.7 2.6 0.00 0.13 0.13 76 1006.7
20260506023909 73 326 0.0 1.7 0.00 0.13 0.13 77 1006.3
20260506023407 73 183 0.9 1.7 0.00 0.13 0.13 77 1006.3
20260506022903 73 102 0.0 1.7 0.00 0.13 0.13 77 1006.0
20260506022401 73 54 1.7 1.7 0.00 0.13 0.13 76 1005.8
20260506021859 73 202 0.0 2.6 0.00 0.13 0.13 76 1005.8
20260506021355 73 173 0.0 1.7 0.00 0.13 0.13 77 1006.0
20260506020852 73 276 1.7 1.7 0.00 0.13 0.13 77 1006.0
20260506020350 73 339 1.7 1.7 0.00 0.13 0.13 78 1005.6
20260506015847 73 80 0.9 2.6 0.00 0.13 0.13 79 1005.8
20260506015345 73 124 0.0 1.7 0.00 0.13 0.13 79 1005.9
20260506014841 73 135 0.0 1.7 0.00 0.13 0.13 80 1005.5
20260506014338 74 209 0.0 0.9 0.00 0.13 0.13 81 1005.5
20260506013835 74 285 0.0 1.7 0.00 0.13 0.13 81 1005.3
20260506013332 74 252 0.0 1.7 0.00 0.13 0.13 81 1005.6
20260506012829 74 124 0.9 1.7 0.00 0.13 0.13 83 1005.7
20260506012326 75 44 1.7 1.7 0.00 0.13 0.13 85 1005.6
20260506011823 77 43 0.0 1.7 0.00 0.13 0.13 90 1005.2
20260506011319 77 55 0.0 1.7 0.00 0.13 0.13 91 1005.0
20260506010817 77 266 0.9 1.7 0.00 0.13 0.13 91 1005.0
20260506010315 77 37 0.0 0.0 0.00 0.13 0.13 91 1004.6
20260506005812 77 296 1.7 1.7 0.00 0.13 0.13 91 1004.8
20260506005308 77 114 0.0 0.9 0.00 0.13 0.13 90 1004.9
20260506004805 77 255 0.9 2.6 0.00 0.13 0.13 90 1004.7
20260506004302 77 296 0.9 1.7 0.02 0.13 0.13 90 1005.0
20260506003758 77 140 0.0 1.7 0.05 0.13 0.13 89 1004.9
20260506003254 77 275 1.7 2.6 0.19 0.12 0.12 88 1004.7
20260506002751 77 259 0.0 1.7 0.59 0.12 0.12 86 1004.7
20260506002247 78 149 1.7 2.6 0.52 0.09 0.09 83 1004.9
20260506001743 79 197 1.7 4.3 0.12 0.02 0.02 82 1005.0
20260506001241 79 207 0.9 4.3 0.00 0.00 0.00 80 1004.3
20260506000737 79 169 3.5 7.8 0.00 0.00 0.00 79 1004.0
20260506000235 79 166 6.1 9.6 0.00 0.00 0.00 78 1004.0
20260505235732 79 150 8.7 11.3 0.00 0.00 0.00 78 1003.8
20260505235230 79 147 9.6 13.9 0.00 0.00 0.00 78 1003.5
20260505234726 79 149 11.3 13.9 0.00 0.00 0.00 78 1003.7
20260505234224 80 146 9.6 11.3 0.00 0.00 0.00 78 1003.6
20260505233720 80 152 7.8 10.4 0.00 0.00 0.00 77 1003.8
20260505233218 80 148 7.0 10.4 0.00 0.00 0.00 77 1003.9
20260505232715 80 147 8.7 11.3 0.00 0.00 0.00 77 1003.7
20260505232212 80 144 9.6 11.3 0.00 0.00 0.00 77 1003.6
20260505231709 80 149 7.8 11.3 0.00 0.00 0.00 77 1003.7
20260505231208 81 146 8.7 10.4 0.00 0.00 0.00 76 1003.7
20260505230706 80 149 7.8 10.4 0.00 0.00 0.00 76 1003.6
20260505230202 80 151 7.8 8.7 0.00 0.00 0.00 76 1003.7
20260505225658 81 143 7.8 8.7 0.00 0.00 0.00 76 1003.6
20260505225155 81 148 6.1 8.7 0.00 0.00 0.00 76 1003.6
20260505224651 81 150 5.2 7.0 0.00 0.00 0.00 75 1003.4
20260505224149 81 151 2.6 7.0 0.00 0.00 0.00 76 1003.5
20260505223646 80 150 7.8 9.6 0.00 0.00 0.00 76 1003.3
20260505223142 80 146 7.8 9.6 0.00 0.00 0.00 77 1003.2
20260505222638 80 151 8.7 10.4 0.00 0.00 0.00 76 1003.3
20260505222135 81 145 8.7 10.4 0.00 0.00 0.00 74 1003.6
20260505221632 81 150 8.7 10.4 0.00 0.00 0.00 74 1003.3
20260505221128 81 148 7.0 9.6 0.00 0.00 0.00 76 1003.3
20260505220626 81 151 7.8 9.6 0.00 0.00 0.00 76 1003.2
20260505220123 81 152 6.1 9.6 0.00 0.00 0.00 76 1003.2
20260505215621 81 150 8.7 9.6 0.00 0.00 0.00 75 1003.3
20260505215119 81 151 6.1 8.7 0.00 0.00 0.00 74 1003.4
20260505214617 82 160 4.3 7.8 0.00 0.00 0.00 74 1003.4
20260505214114 82 145 5.2 9.6 0.00 0.00 0.00 74 1003.6
20260505213611 81 142 7.0 9.6 0.00 0.00 0.00 75 1003.5
20260505213107 81 148 8.7 9.6 0.00 0.00 0.00 73 1003.4
20260505212603 81 161 4.3 8.7 0.00 0.00 0.00 75 1003.7
20260505212102 81 146 7.0 11.3 0.00 0.00 0.00 74 1003.7
20260505211558 81 149 7.8 9.6 0.00 0.00 0.00 75 1003.6
20260505211055 81 150 7.8 10.4 0.00 0.00 0.00 74 1003.6
20260505210551 82 150 6.1 9.6 0.00 0.00 0.00 72 1003.8
20260505210049 82 149 7.0 9.6 0.00 0.00 0.00 71 1003.7
20260505205546 83 145 7.8 8.7 0.00 0.00 0.00 70 1003.9
20260505205044 83 148 2.6 7.8 0.00 0.00 0.00 71 1003.8
20260505204541 84 151 5.2 6.1 0.00 0.00 0.00 68 1004.0
20260505204038 85 155 4.3 6.1 0.00 0.00 0.00 66 1004.0
20260505203535 83 175 5.2 6.1 0.00 0.00 0.00 68 1004.0
20260505203032 81 149 7.0 8.7 0.00 0.00 0.00 73 1004.0
20260505202528 81 150 6.1 8.7 0.00 0.00 0.00 73 1004.1
20260505202024 83 158 6.1 8.7 0.00 0.00 0.00 70 1004.2
20260505201521 81 153 4.3 7.8 0.00 0.00 0.00 73 1004.1
20260505201018 81 152 10.4 11.3 0.00 0.00 0.00 74 1004.2
20260505200517 83 151 3.5 8.7 0.00 0.00 0.00 70 1004.2
20260505200013 82 163 4.3 8.7 0.00 0.00 0.00 72 1004.3
20260505195509 82 154 7.0 10.4 0.00 0.00 0.00 72 1004.3
20260505195007 82 144 8.7 8.7 0.00 0.00 0.00 70 1004.3
20260505194504 82 151 3.5 6.1 0.00 0.00 0.00 71 1004.3
20260505194004 82 182 3.5 8.7 0.00 0.00 0.00 71 1004.5
20260505193502 81 147 7.0 11.3 0.00 0.00 0.00 72 1004.2
20260505192959 80 174 4.3 8.7 0.00 0.00 0.00 74 1004.3
20260505192457 80 148 7.8 10.4 0.00 0.00 0.00 74 1004.3
20260505191954 80 155 4.3 11.3 0.00 0.00 0.00 75 1004.5
20260505191453 79 145 7.0 11.3 0.00 0.00 0.00 76 1004.5
20260505190950 80 147 8.7 11.3 0.00 0.00 0.00 74 1004.7
20260505190444 80 149 4.3 7.8 0.00 0.00 0.00 74 1004.6
20260505185940 80 155 8.7 10.4 0.00 0.00 0.00 74 1004.6
20260505185438 80 146 5.2 5.2 0.00 0.00 0.00 73 1004.8
20260505184934 80 177 2.6 7.0 0.00 0.00 0.00 74 1004.7
20260505184431 80 161 2.6 8.7 0.00 0.00 0.00 75 1004.8
20260505183927 80 158 4.3 7.8 0.00 0.00 0.00 75 1004.8
20260505183425 79 156 5.2 9.6 0.00 0.00 0.00 75 1004.7
20260505182921 80 151 6.1 9.6 0.00 0.00 0.00 73 1004.9
20260505182418 79 166 5.2 8.7 0.00 0.00 0.00 74 1004.8
20260505181914 80 149 7.0 7.8 0.00 0.00 0.00 72 1005.1
20260505181412 80 160 5.2 9.6 0.00 0.00 0.00 72 1005.0
20260505180908 80 157 1.7 7.8 0.00 0.00 0.00 72 1005.1
20260505180405 80 151 4.3 9.6 0.00 0.00 0.00 72 1004.9
20260505175902 80 156 2.6 10.4 0.00 0.00 0.00 72 1004.8
20260505175358 81 159 5.2 9.6 0.00 0.00 0.00 70 1004.8
20260505174854 81 198 4.3 7.0 0.00 0.00 0.00 72 1005.1
20260505174352 80 139 4.3 5.2 0.00 0.00 0.00 72 1005.1
20260505173848 79 180 3.5 8.7 0.00 0.00 0.00 74 1005.0
20260505173344 79 144 7.0 9.6 0.00 0.00 0.00 75 1005.0
20260505172842 80 151 3.5 7.8 0.00 0.00 0.00 74 1004.9
20260505172339 79 151 2.6 8.7 0.00 0.00 0.00 74 1005.0
20260505171839 79 155 6.1 7.8 0.00 0.00 0.00 75 1005.0
20260505171336 78 174 2.6 7.0 0.00 0.00 0.00 75 1005.1
20260505170832 79 154 7.0 9.6 0.00 0.00 0.00 73 1004.9
20260505170329 79 159 4.3 11.3 0.00 0.00 0.00 74 1005.1
20260505165825 79 194 1.7 7.8 0.00 0.00 0.00 74 1005.4
20260505165320 78 146 3.5 7.8 0.00 0.00 0.00 74 1005.2
20260505164816 78 179 1.7 9.6 0.00 0.00 0.00 75 1005.0
20260505164313 79 200 6.1 11.3 0.00 0.00 0.00 73 1005.2
20260505163812 78 180 5.2 12.2 0.00 0.00 0.00 75 1005.2
20260505163310 78 167 3.5 9.6 0.00 0.00 0.00 75 1005.1
20260505162808 78 147 6.1 10.4 0.00 0.00 0.00 74 1005.1
20260505162306 78 154 6.1 7.8 0.00 0.00 0.00 75 1004.8
20260505161801 77 164 5.2 8.7 0.00 0.00 0.00 76 1004.8
20260505161258 77 160 5.2 8.7 0.00 0.00 0.00 77 1004.7
20260505160755 77 169 7.8 11.3 0.00 0.00 0.00 77 1004.9
20260505160253 76 157 6.1 8.7 0.00 0.00 0.00 78 1004.7
20260505153232 76 179 1.7 7.0 0.00 0.00 0.00 79 1004.9
20260505152729 76 148 7.8 9.6 0.00 0.00 0.00 79 1005.1
20260505152226 75 161 2.6 9.6 0.00 0.00 0.00 80 1005.1
20260505151725 75 189 4.3 5.2 0.00 0.00 0.00 80 1005.3
20260505151223 75 158 3.5 9.6 0.00 0.00 0.00 80 1005.0
20260505150719 75 202 7.0 9.6 0.00 0.00 0.00 81 1005.0
20260505150217 75 182 5.2 7.8 0.00 0.00 0.00 80 1005.1
20260505140650 73 154 8.7 9.6 0.00 0.00 0.00 84 1004.9
20260505140147 73 154 2.6 11.3 0.00 0.00 0.00 84 1004.7
20260505130112 72 163 6.1 12.2 0.00 0.00 0.00 85 1004.6
20260505124601 72 197 6.1 9.6 0.00 0.00 0.00 85 1004.7
20260505124057 72 172 6.1 8.7 0.00 0.00 0.00 85 1004.3
20260505123553 72 154 7.0 9.6 0.00 0.00 0.00 85 1004.2
20260505123050 72 176 4.3 9.6 0.00 0.00 0.00 85 1004.1
20260505122547 72 173 3.5 12.2 0.00 0.00 0.00 84 1004.2
20260505122044 72 143 1.7 7.8 0.00 0.00 0.00 85 1004.3
20260505121540 72 164 2.6 11.3 0.00 0.00 0.00 85 1004.2
20260505121037 72 158 2.6 8.7 0.00 0.00 0.00 85 1003.9
20260505120534 72 199 3.5 8.7 0.00 0.00 0.00 85 1004.0
20260505120029 72 149 2.6 8.7 0.00 0.00 0.00 85 1004.1
20260505115524 71 151 5.2 7.8 0.00 0.00 0.00 85 1003.9
20260505115022 72 132 2.6 8.7 0.00 0.00 0.00 85 1004.0
20260505114519 72 168 3.5 8.7 0.00 0.00 0.00 85 1003.8
20260505114015 71 171 2.6 8.7 0.00 0.00 0.00 85 1004.0
20260505113512 71 175 3.5 7.0 0.00 0.00 0.00 85 1004.0
20260505113008 71 184 3.5 12.2 0.00 0.00 0.00 85 1003.9
20260505112504 71 197 4.3 11.3 0.00 0.00 0.00 85 1003.9
20260505112002 71 198 2.6 6.1 0.00 0.00 0.00 85 1004.0
20260505111456 71 151 6.1 14.8 0.00 0.00 0.00 85 1004.0
20260505110952 71 178 3.5 7.8 0.00 0.00 0.00 85 1003.8
20260505110449 71 155 1.7 7.8 0.00 0.00 0.00 85 1004.0
20260505101921 71 163 4.3 12.2 0.00 0.00 0.00 85 1004.0
20260505101421 71 147 6.1 13.0 0.00 0.00 0.00 85 1004.1
20260505100916 71 168 4.3 11.3 0.00 0.00 0.00 85 1004.0
20260505100414 71 160 7.0 11.3 0.00 0.00 0.00 85 1003.9
20260505095909 71 152 7.8 8.7 0.00 0.00 0.00 85 1004.0
20260505095406 71 150 6.1 10.4 0.00 0.00 0.00 85 1004.1
20260505094902 72 146 7.8 10.4 0.00 0.00 0.00 85 1004.1
20260505094400 72 136 3.5 11.3 0.00 0.00 0.00 84 1004.5
20260505093855 72 178 4.3 8.7 0.00 0.00 0.00 84 1004.2
20260505093353 72 161 7.0 8.7 0.00 0.00 0.00 84 1004.5
20260505092850 71 165 2.6 8.7 0.00 0.00 0.00 84 1004.5
20260505092348 72 201 3.5 8.7 0.00 0.00 0.00 84 1004.5
20260505091845 71 148 3.5 9.6 0.00 0.00 0.00 84 1004.5
20260505091343 71 206 5.2 7.0 0.00 0.00 0.00 84 1004.3
20260505090841 71 161 3.5 9.6 0.00 0.00 0.00 85 1004.2
20260505090339 71 160 3.5 7.8 0.00 0.00 0.00 84 1004.3
20260505085835 71 166 4.3 10.4 0.00 0.00 0.00 84 1004.5
20260505085333 71 180 5.2 8.7 0.00 0.00 0.00 84 1004.6
20260505084831 71 148 4.3 11.3 0.00 0.00 0.00 84 1004.5
20260505084329 71 163 7.0 11.3 0.00 0.00 0.00 84 1004.3
20260505083826 71 180 6.1 9.6 0.00 0.00 0.00 85 1004.5
20260505083324 71 168 3.5 13.0 0.00 0.00 0.00 85 1004.5
20260505082820 71 159 8.7 13.0 0.00 0.00 0.00 85 1004.5
20260505082316 71 208 1.7 9.6 0.00 0.00 0.00 85 1004.7
20260505081813 71 149 7.8 13.0 0.00 0.00 0.00 85 1004.3
20260505081310 71 192 3.5 17.4 0.00 0.00 0.00 85 1004.3
20260505080806 71 147 4.3 11.3 0.00 0.00 0.00 84 1004.5
20260505080302 71 160 5.2 13.9 0.00 0.00 0.00 84 1004.8
20260505075758 71 151 6.1 11.3 0.00 0.00 0.00 85 1004.9
20260505075255 71 170 3.5 13.0 0.00 0.00 0.00 85 1004.9
20260505074752 71 147 9.6 11.3 0.00 0.00 0.00 85 1004.9
20260505074249 71 165 5.2 10.4 0.00 0.00 0.00 85 1005.0
20260505073747 71 170 5.2 7.8 0.00 0.00 0.00 85 1005.2
20260505073245 71 149 6.1 12.2 0.00 0.00 0.00 85 1005.1
20260505072741 71 148 8.7 10.4 0.00 0.00 0.00 85 1005.1
20260505072237 71 176 5.2 13.9 0.00 0.00 0.00 85 1005.1
20260505071733 71 148 7.0 11.3 0.00 0.00 0.00 84 1005.1
20260505071230 71 163 5.2 10.4 0.00 0.00 0.00 84 1005.3
20260505070728 71 153 3.5 8.7 0.00 0.00 0.00 84 1005.5
20260505070224 71 145 5.2 10.4 0.00 0.00 0.00 84 1005.5
20260505065720 71 153 7.0 8.7 0.00 0.00 0.00 83 1005.3
20260505065217 71 183 2.6 9.6 0.00 0.00 0.00 83 1005.5
20260505064714 71 168 1.7 9.6 0.00 0.00 0.00 83 1005.4
20260505064212 71 157 6.1 10.4 0.00 0.00 0.00 84 1005.6
20260505063709 71 152 4.3 10.4 0.00 0.00 0.00 83 1005.6
20260505063205 72 149 12.2 13.0 0.00 0.00 0.00 83 1005.5
20260505062701 72 156 5.2 10.4 0.00 0.00 0.00 83 1005.5
20260505062159 72 145 4.3 16.5 0.00 0.00 0.00 83 1005.4
20260505061656 72 167 8.7 14.8 0.00 0.00 0.00 83 1005.5
20260505061154 72 153 8.7 11.3 0.00 0.00 0.00 82 1005.5
20260505060651 72 171 3.5 12.2 0.00 0.00 0.00 82 1005.9
20260505060147 72 161 4.3 12.2 0.00 0.00 0.00 82 1005.8
20260505055643 72 148 7.0 12.2 0.00 0.00 0.00 82 1006.0
20260505055140 72 151 9.6 13.0 0.00 0.00 0.00 81 1005.8
20260505054637 72 151 11.3 13.0 0.00 0.00 0.00 81 1005.8
20260505054135 72 157 6.1 13.0 0.00 0.00 0.00 81 1005.8
20260505053632 72 145 8.7 10.4 0.00 0.00 0.00 81 1006.0
20260505053128 72 161 5.2 12.2 0.00 0.00 0.00 81 1006.1
20260505052626 72 155 8.7 13.9 0.00 0.00 0.00 81 1006.1
20260505052123 72 153 7.8 13.0 0.00 0.00 0.00 81 1006.0
20260505051620 72 147 14.8 14.8 0.00 0.00 0.00 80 1006.0
20260505051118 72 145 6.1 13.0 0.00 0.00 0.00 80 1006.2
20260505050615 72 146 9.6 13.0 0.00 0.00 0.00 79 1006.0
20260505050114 73 148 11.3 14.8 0.00 0.00 0.00 79 1006.1